Time,TemperatureF,DewpointF,PressureIn,WindDirection,WindDirectionDegrees,WindSpeedMPH,WindSpeedGustMPH,Humidity,HourlyPrecipIn,Conditions,Clouds,dailyrainin,SoftwareType,DateUTC
2013-06-05 00:02:00,66.0,39.0,-100.00,ENE,71,6.0,9.0,37,-99.99,,,-99.99,,2013-06-05 07:02:00,
2013-06-05 00:12:00,66.0,39.0,-100.00,ENE,71,6.0,9.0,37,-99.99,,,-99.99,,2013-06-05 07:12:00,
2013-06-05 00:22:00,61.0,41.0,-100.00,East,92,4.0,6.0,47,-99.99,,,-99.99,,2013-06-05 07:22:00,
2013-06-05 00:32:00,60.0,46.0,-100.00,SSE,157,3.0,9.0,60,-99.99,,,-99.99,,2013-06-05 07:32:00,
2013-06-05 00:42:00,60.0,46.0,-100.00,SSE,157,3.0,9.0,60,-99.99,,,-99.99,,2013-06-05 07:42:00,
2013-06-05 00:52:00,59.0,45.0,-100.00,WSW,251,0.0,5.0,60,-99.99,,,-99.99,,2013-06-05 07:52:00,
2013-06-05 01:02:00,59.0,45.0,-100.00,WSW,251,0.0,5.0,60,-99.99,,,-99.99,,2013-06-05 08:02:00,
2013-06-05 01:12:00,59.0,45.0,-100.00,WSW,251,0.0,5.0,60,-99.99,,,-99.99,,2013-06-05 08:12:00,
2013-06-05 01:32:00,57.0,39.0,-100.00,NNE,31,5.0,7.0,51,-99.99,,,-99.99,,2013-06-05 08:32:00,
2013-06-05 01:42:00,57.0,39.0,-100.00,NNE,31,5.0,7.0,51,-99.99,,,-99.99,,2013-06-05 08:42:00,
2013-06-05 01:52:00,54.0,40.0,-100.00,East,79,1.0,4.0,59,-99.99,,,-99.99,,2013-06-05 08:52:00,
2013-06-05 02:02:00,54.0,40.0,-100.00,East,79,1.0,4.0,59,-99.99,,,-99.99,,2013-06-05 09:02:00,
2013-06-05 02:12:00,54.0,44.0,-100.00,SE,141,2.0,4.0,70,-99.99,,,-99.99,,2013-06-05 09:12:00,
2013-06-05 02:43:00,54.0,44.0,-100.00,SE,141,2.0,4.0,70,-99.99,,,-99.99,,2013-06-05 09:43:00,
2013-06-05 02:53:00,54.0,44.0,-100.00,SE,141,2.0,4.0,70,-99.99,,,-99.99,,2013-06-05 09:53:00,
2013-06-05 03:03:00,54.0,44.0,-100.00,SE,141,2.0,4.0,70,-99.99,,,-99.99,,2013-06-05 10:03:00,
2013-06-05 03:33:00,51.0,39.0,-100.00,NE,41,1.0,4.0,63,-99.99,,,-99.99,,2013-06-05 10:33:00,
2013-06-05 04:02:00,50.0,41.0,-100.00,SSE,162,0.0,3.0,72,-99.99,,,-99.99,,2013-06-05 11:02:00,
2013-06-05 04:22:00,50.0,38.0,-100.00,SE,130,0.0,3.0,64,-99.99,,,-99.99,,2013-06-05 11:22:00,
2013-06-05 04:52:00,48.0,34.0,-100.00,SE,127,1.0,3.0,58,-99.99,,,-99.99,,2013-06-05 11:52:00,
2013-06-05 05:12:00,49.0,34.0,-100.00,NE,45,0.0,3.0,57,-99.99,,,-99.99,,2013-06-05 12:12:00,
2013-06-05 05:22:00,49.0,34.0,-100.00,NE,45,0.0,3.0,57,-99.99,,,-99.99,,2013-06-05 12:22:00,
2013-06-05 05:32:00,47.0,40.0,-100.00,North,-999,0.0,0.0,76,-99.99,,,-99.99,,2013-06-05 12:32:00,
2013-06-05 05:43:00,47.0,40.0,-100.00,North,-999,0.0,0.0,76,-99.99,,,-99.99,,2013-06-05 12:43:00,
2013-06-05 05:52:00,45.0,34.0,-100.00,SE,124,0.0,3.0,65,-99.99,,,-99.99,,2013-06-05 12:52:00,
2013-06-05 06:02:00,45.0,34.0,-100.00,SE,124,0.0,3.0,65,-99.99,,,-99.99,,2013-06-05 13:02:00,
2013-06-05 06:42:00,48.0,37.0,-100.00,East,80,0.0,3.0,66,-99.99,,,-99.99,,2013-06-05 13:42:00,
2013-06-05 06:52:00,48.0,36.0,-100.00,SE,124,1.0,5.0,63,-99.99,,,-99.99,,2013-06-05 13:52:00,
2013-06-05 07:02:00,48.0,36.0,-100.00,SE,124,1.0,5.0,63,-99.99,,,-99.99,,2013-06-05 14:02:00,
2013-06-05 07:12:00,51.0,37.0,-100.00,ENE,69,2.0,4.0,59,-99.99,,,-99.99,,2013-06-05 14:12:00,
2013-06-05 07:22:00,51.0,37.0,-100.00,ENE,69,2.0,4.0,59,-99.99,,,-99.99,,2013-06-05 14:22:00,
2013-06-05 07:32:00,53.0,39.0,-100.00,East,80,0.0,3.0,58,-99.99,,,-99.99,,2013-06-05 14:32:00,
2013-06-05 07:42:00,56.0,42.0,-100.00,North,-999,0.0,0.0,60,-99.99,,,-99.99,,2013-06-05 14:42:00,
2013-06-05 07:52:00,56.0,42.0,-100.00,North,-999,0.0,0.0,60,-99.99,,,-99.99,,2013-06-05 14:52:00,
2013-06-05 08:02:00,56.0,42.0,-100.00,North,-999,0.0,0.0,60,-99.99,,,-99.99,,2013-06-05 15:02:00,
2013-06-05 08:12:00,57.0,45.0,-100.00,WNW,289,0.0,3.0,63,-99.99,,,-99.99,,2013-06-05 15:12:00,
2013-06-05 08:22:00,58.0,45.0,-100.00,WNW,292,0.0,1.0,62,-99.99,,,-99.99,,2013-06-05 15:22:00,
2013-06-05 08:33:00,61.0,46.0,-100.00,WNW,288,0.0,3.0,57,-99.99,,,-99.99,,2013-06-05 15:33:00,
2013-06-05 08:42:00,61.0,46.0,-100.00,WNW,288,0.0,3.0,57,-99.99,,,-99.99,,2013-06-05 15:42:00,
2013-06-05 08:53:00,65.0,46.0,-100.00,SSE,147,0.0,2.0,51,-99.99,,,-99.99,,2013-06-05 15:53:00,
2013-06-05 09:03:00,65.0,46.0,-100.00,SSE,147,0.0,2.0,51,-99.99,,,-99.99,,2013-06-05 16:03:00,
2013-06-05 09:12:00,65.0,46.0,-100.00,SSW,213,1.0,3.0,51,-99.99,,,-99.99,,2013-06-05 16:12:00,
2013-06-05 09:22:00,67.0,46.0,-100.00,SW,223,0.0,1.0,46,-99.99,,,-99.99,,2013-06-05 16:22:00,
2013-06-05 09:32:00,67.0,46.0,-100.00,SW,223,0.0,1.0,46,-99.99,,,-99.99,,2013-06-05 16:32:00,
2013-06-05 09:42:00,67.0,46.0,-100.00,SW,223,0.0,1.0,46,-99.99,,,-99.99,,2013-06-05 16:42:00,
2013-06-05 09:53:00,67.0,46.0,-100.00,SW,223,0.0,1.0,46,-99.99,,,-99.99,,2013-06-05 16:53:00,
2013-06-05 10:12:00,71.0,43.0,-100.00,West,270,1.0,3.0,36,-99.99,,,-99.99,,2013-06-05 17:12:00,
2013-06-05 10:22:00,72.0,45.0,-100.00,West,277,2.0,4.0,38,-99.99,,,-99.99,,2013-06-05 17:22:00,
2013-06-05 10:32:00,72.0,45.0,-100.00,West,277,2.0,4.0,38,-99.99,,,-99.99,,2013-06-05 17:32:00,
2013-06-05 10:42:00,74.0,44.0,-100.00,SW,229,1.0,4.0,34,-99.99,,,-99.99,,2013-06-05 17:42:00,
2013-06-05 10:52:00,74.0,44.0,-100.00,SW,229,1.0,4.0,34,-99.99,,,-99.99,,2013-06-05 17:52:00,
2013-06-05 11:02:00,74.0,44.0,-100.00,SW,229,1.0,4.0,34,-99.99,,,-99.99,,2013-06-05 18:02:00,
2013-06-05 11:22:00,76.0,45.0,-100.00,WNW,302,3.0,6.0,33,-99.99,,,-99.99,,2013-06-05 18:22:00,
2013-06-05 11:32:00,76.0,45.0,-100.00,WNW,302,3.0,6.0,33,-99.99,,,-99.99,,2013-06-05 18:32:00,
2013-06-05 11:42:00,78.0,40.0,-100.00,WNW,291,3.0,5.0,26,-99.99,,,-99.99,,2013-06-05 18:42:00,
2013-06-05 11:52:00,80.0,33.0,-100.00,West,271,2.0,4.0,18,-99.99,,,-99.99,,2013-06-05 18:52:00,
2013-06-05 12:02:00,80.0,33.0,-100.00,West,271,2.0,4.0,18,-99.99,,,-99.99,,2013-06-05 19:02:00,
2013-06-05 12:12:00,80.0,35.0,-100.00,WNW,301,3.0,6.0,20,-99.99,,,-99.99,,2013-06-05 19:12:00,
2013-06-05 12:23:00,80.0,35.0,-100.00,WNW,301,3.0,6.0,20,-99.99,,,-99.99,,2013-06-05 19:23:00,
2013-06-05 12:32:00,81.0,32.0,-100.00,WNW,294,3.0,6.0,17,-99.99,,,-99.99,,2013-06-05 19:32:00,
2013-06-05 12:42:00,81.0,32.0,-100.00,WNW,294,3.0,6.0,17,-99.99,,,-99.99,,2013-06-05 19:42:00,
2013-06-05 12:52:00,81.0,32.0,-100.00,WNW,294,3.0,6.0,17,-99.99,,,-99.99,,2013-06-05 19:52:00,
2013-06-05 13:12:00,83.0,34.0,-100.00,SSW,200,2.0,5.0,17,-99.99,,,-99.99,,2013-06-05 20:12:00,
2013-06-05 13:22:00,83.0,34.0,-100.00,SSW,200,2.0,5.0,17,-99.99,,,-99.99,,2013-06-05 20:22:00,
2013-06-05 13:31:00,84.0,28.0,-100.00,SW,223,3.0,7.0,13,-99.99,,,-99.99,,2013-06-05 20:31:00,
2013-06-05 13:32:00,84.0,31.0,-100.00,SW,227,2.0,5.0,15,-99.99,,,-99.99,,2013-06-05 20:32:00,
2013-06-05 13:42:00,84.0,31.0,-100.00,SW,227,2.0,5.0,15,-99.99,,,-99.99,,2013-06-05 20:42:00,
2013-06-05 13:52:00,84.0,28.0,-100.00,SW,223,3.0,7.0,13,-99.99,,,-99.99,,2013-06-05 20:52:00,
2013-06-05 14:02:00,84.0,28.0,-100.00,SW,223,3.0,7.0,13,-99.99,,,-99.99,,2013-06-05 21:02:00,
2013-06-05 14:12:00,84.0,28.0,-100.00,SW,223,3.0,7.0,13,-99.99,,,-99.99,,2013-06-05 21:12:00,
2013-06-05 14:22:00,84.0,28.0,-100.00,SW,223,3.0,7.0,13,-99.99,,,-99.99,,2013-06-05 21:22:00,
2013-06-05 15:12:00,86.0,39.0,-100.00,West,281,3.0,7.0,19,-99.99,,,-99.99,,2013-06-05 22:12:00,
2013-06-05 15:22:00,87.0,30.0,-100.00,NW,313,5.0,8.0,13,-99.99,,,-99.99,,2013-06-05 22:22:00,
2013-06-05 15:32:00,87.0,34.0,-100.00,WNW,289,3.0,7.0,15,-99.99,,,-99.99,,2013-06-05 22:32:00,
2013-06-05 15:42:00,87.0,34.0,-100.00,WNW,289,3.0,7.0,15,-99.99,,,-99.99,,2013-06-05 22:42:00,
2013-06-05 15:52:00,87.0,34.0,-100.00,WNW,289,3.0,7.0,15,-99.99,,,-99.99,,2013-06-05 22:52:00,
2013-06-05 16:02:00,87.0,34.0,-100.00,WNW,289,3.0,7.0,15,-99.99,,,-99.99,,2013-06-05 23:02:00,
2013-06-05 17:12:00,87.0,37.0,-100.00,WSW,257,3.0,6.0,17,-99.99,,,-99.99,,2013-06-06 00:12:00,
2013-06-05 17:22:00,88.0,31.0,-100.00,SSW,212,0.0,2.0,13,-99.99,,,-99.99,,2013-06-06 00:22:00,
2013-06-05 17:32:00,88.0,31.0,-100.00,SSW,212,0.0,2.0,13,-99.99,,,-99.99,,2013-06-06 00:32:00,
2013-06-05 17:42:00,85.0,45.0,-100.00,West,272,1.0,3.0,25,-99.99,,,-99.99,,2013-06-06 00:42:00,
2013-06-05 17:52:00,83.0,53.0,-100.00,West,278,3.0,5.0,36,-99.99,,,-99.99,,2013-06-06 00:52:00,
2013-06-05 18:02:00,83.0,53.0,-100.00,West,278,3.0,5.0,36,-99.99,,,-99.99,,2013-06-06 01:02:00,
2013-06-05 18:22:00,83.0,52.0,-100.00,WSW,257,5.0,7.0,34,-99.99,,,-99.99,,2013-06-06 01:22:00,
2013-06-05 18:53:00,79.0,44.0,-100.00,WSW,251,11.0,18.0,29,-99.99,,,-99.99,,2013-06-06 01:53:00,
2013-06-05 19:02:00,79.0,44.0,-100.00,WSW,251,11.0,18.0,29,-99.99,,,-99.99,,2013-06-06 02:02:00,
2013-06-05 19:12:00,78.0,47.0,-100.00,WSW,248,10.0,16.0,33,-99.99,,,-99.99,,2013-06-06 02:12:00,
2013-06-05 19:32:00,76.0,45.0,-100.00,WSW,257,6.0,13.0,33,-99.99,,,-99.99,,2013-06-06 02:32:00,
2013-06-05 19:42:00,76.0,45.0,-100.00,WSW,257,6.0,13.0,33,-99.99,,,-99.99,,2013-06-06 02:42:00,
2013-06-05 19:52:00,76.0,45.0,-100.00,WSW,257,6.0,13.0,33,-99.99,,,-99.99,,2013-06-06 02:52:00,
2013-06-05 20:02:00,81.0,42.0,-100.00,North,-999,0.0,0.0,25,-99.99,,,-99.99,,2013-06-06 03:02:00,
2013-06-05 20:12:00,81.0,42.0,-100.00,North,-999,0.0,0.0,25,-99.99,,,-99.99,,2013-06-06 03:12:00,
2013-06-05 20:22:00,80.0,40.0,-100.00,West,275,1.0,4.0,24,-99.99,,,-99.99,,2013-06-06 03:22:00,
2013-06-05 20:33:00,80.0,40.0,-100.00,West,275,1.0,4.0,24,-99.99,,,-99.99,,2013-06-06 03:33:00,
2013-06-05 20:40:00,72.0,48.0,-100.00,East,100,3.0,6.0,42,-99.99,,,-99.99,,2013-06-06 03:40:00,
2013-06-05 20:43:00,80.0,40.0,-100.00,West,275,1.0,4.0,24,-99.99,,,-99.99,,2013-06-06 03:43:00,
2013-06-05 20:53:00,78.0,39.0,-100.00,SSW,213,0.0,3.0,25,-99.99,,,-99.99,,2013-06-06 03:53:00,
2013-06-05 21:03:00,78.0,39.0,-100.00,SSW,213,0.0,3.0,25,-99.99,,,-99.99,,2013-06-06 04:03:00,
2013-06-05 21:13:00,72.0,48.0,-100.00,East,100,3.0,6.0,42,-99.99,,,-99.99,,2013-06-06 04:13:00,
2013-06-05 21:23:00,72.0,48.0,-100.00,East,100,3.0,6.0,42,-99.99,,,-99.99,,2013-06-06 04:23:00,
2013-06-05 21:33:00,72.0,48.0,-100.00,East,100,3.0,6.0,42,-99.99,,,-99.99,,2013-06-06 04:33:00,
2013-06-05 21:53:00,72.0,44.0,-100.00,East,82,6.0,9.0,37,-99.99,,,-99.99,,2013-06-06 04:53:00,
2013-06-05 22:02:00,72.0,44.0,-100.00,East,82,6.0,9.0,37,-99.99,,,-99.99,,2013-06-06 05:02:00,
2013-06-05 22:12:00,72.0,44.0,-100.00,East,82,6.0,9.0,37,-99.99,,,-99.99,,2013-06-06 05:12:00,
2013-06-05 22:32:00,73.0,45.0,-100.00,SSE,160,5.0,8.0,37,-99.99,,,-99.99,,2013-06-06 05:32:00,
2013-06-05 22:42:00,73.0,45.0,-100.00,SSE,160,5.0,8.0,37,-99.99,,,-99.99,,2013-06-06 05:42:00,
2013-06-05 22:52:00,69.0,51.0,-100.00,SSE,168,4.0,6.0,53,-99.99,,,-99.99,,2013-06-06 05:52:00,
2013-06-05 23:02:00,69.0,51.0,-100.00,SSE,168,4.0,6.0,53,-99.99,,,-99.99,,2013-06-06 06:02:00,
2013-06-05 23:22:00,67.0,47.0,-100.00,NE,56,4.0,8.0,48,-99.99,,,-99.99,,2013-06-06 06:22:00,
2013-06-05 23:32:00,68.0,39.0,-100.00,ENE,73,5.0,9.0,34,-99.99,,,-99.99,,2013-06-06 06:32:00,
2013-06-05 23:42:00,68.0,39.0,-100.00,ENE,73,5.0,9.0,34,-99.99,,,-99.99,,2013-06-06 06:42:00,
2013-06-05 23:52:00,67.0,36.0,-100.00,ENE,66,4.0,6.0,32,-99.99,,,-99.99,,2013-06-06 06:52:00,